,,,PA_Meas_PMT16A,,PR_Meas_QMR101_102,,RH_Meas_QMH101,,SR_Meas_QMS101,,TA_Meas_QMH101,,GenWind,,GenWind,
date,time,status,PA,status,PR,status,RH,status,SR,status,TA,status,DirAvg,status,SpdAvg,
2011-04-24, 00:00:04,VALID,1004.4,VALID,0,INVALID,163.769,VALID,0,VALID,23.9937,VALID,87,VALID,0,
2011-04-24, 00:01:04,VALID,1004.4,VALID,0,INVALID,163.731,VALID,0.100563,VALID,23.9724,VALID,87,VALID,0.0445312,
2011-04-24, 00:02:04,VALID,1004.4,VALID,0,INVALID,163.739,VALID,0.100563,VALID,23.9937,VALID,87,VALID,0,
2011-04-24, 00:03:04,VALID,1004.41,VALID,0,INVALID,163.754,VALID,0,VALID,23.9919,VALID,87,VALID,0.0824219,
2011-04-24, 00:04:04,VALID,1004.45,VALID,0,INVALID,163.754,VALID,0,VALID,23.9742,VALID,87,VALID,0,
2011-04-24, 00:05:04,VALID,1004.45,VALID,0,INVALID,163.716,VALID,0,VALID,23.9937,VALID,87,VALID,0,
2011-04-24, 00:06:04,VALID,1004.44,VALID,0,INVALID,163.731,VALID,0,VALID,23.9937,VALID,87,VALID,0.197656,
2011-04-24, 00:07:04,VALID,1004.43,VALID,0,INVALID,163.739,VALID,0.100563,VALID,23.9724,VALID,87,VALID,0.19375,
2011-04-24, 00:08:04,VALID,1004.43,VALID,0,INVALID,163.746,VALID,0,VALID,23.953,VALID,87,VALID,0,
2011-04-24, 00:09:04,VALID,1004.43,VALID,0,INVALID,163.769,VALID,0.100563,VALID,23.9724,VALID,87,VALID,0,
2011-04-24, 00:10:04,VALID,1004.44,VALID,0,INVALID,163.746,VALID,0.100563,VALID,23.9937,VALID,87,VALID,0,
2011-04-24, 00:11:04,VALID,1004.43,VALID,0,INVALID,163.739,VALID,0.100563,VALID,23.9724,VALID,87,VALID,0,
2011-04-24, 00:12:04,VALID,1004.43,VALID,0,INVALID,163.762,VALID,0.100563,VALID,23.9742,VALID,87,VALID,0,
2011-04-24, 00:13:04,VALID,1004.44,VALID,0,INVALID,163.746,VALID,0.100563,VALID,23.953,VALID,87,VALID,0.0878906,
2011-04-24, 00:14:04,VALID,1004.43,VALID,0,INVALID,163.746,VALID,0,VALID,23.9548,VALID,87,VALID,0,
2011-04-24, 00:15:04,VALID,1004.45,VALID,0,INVALID,163.746,VALID,0,VALID,23.9566,VALID,87,VALID,0,
2011-04-24, 00:16:04,VALID,1004.42,VALID,0,INVALID,163.784,VALID,0,VALID,23.9566,VALID,87,VALID,0,
2011-04-24, 00:17:04,VALID,1004.45,VALID,0,INVALID,163.723,VALID,0,VALID,23.9159,VALID,87,VALID,0,
2011-04-24, 00:18:04,VALID,1004.42,VALID,0,INVALID,163.762,VALID,0,VALID,23.8982,VALID,87,VALID,0,
2011-04-24, 00:19:04,VALID,1004.43,VALID,0,INVALID,163.769,VALID,0,VALID,23.9177,VALID,87,VALID,0.244531,
2011-04-24, 00:20:04,VALID,1004.43,VALID,0,INVALID,163.723,VALID,0,VALID,23.8982,VALID,87,VALID,0.110156,
2011-04-24, 00:21:04,VALID,1004.43,VALID,0,INVALID,163.769,VALID,0,VALID,23.8982,VALID,87,VALID,0.0773437,
2011-04-24, 00:22:04,VALID,1004.43,VALID,0,INVALID,163.754,VALID,0,VALID,23.8787,VALID,87,VALID,0,
2011-04-24, 00:23:04,VALID,1004.43,VALID,0,INVALID,163.769,VALID,0,VALID,23.838,VALID,87,VALID,0,
2011-04-24, 00:24:04,VALID,1004.42,VALID,0,INVALID,163.731,VALID,0,VALID,23.838,VALID,87,VALID,0,
2011-04-24, 00:25:04,VALID,1004.46,VALID,0,INVALID,163.723,VALID,0,VALID,23.838,VALID,87,VALID,0.376953,
2011-04-24, 00:26:04,VALID,1004.43,VALID,0,INVALID,163.723,VALID,0,VALID,23.7991,VALID,87,VALID,0.356641,
2011-04-24, 00:27:04,VALID,1004.43,VALID,0,INVALID,163.762,VALID,0,VALID,23.7991,VALID,87,VALID,0.448438,
2011-04-24, 00:28:04,VALID,1004.42,VALID,0,INVALID,163.739,VALID,0,VALID,23.8009,VALID,87,VALID,0.496484,
2011-04-24, 00:29:04,VALID,1004.4,VALID,0,INVALID,163.739,VALID,0,VALID,23.7601,VALID,85,VALID,0.467578,
2011-04-24, 00:30:04,VALID,1004.41,VALID,0,INVALID,163.762,VALID,0,VALID,23.7814,VALID,48,VALID,0.613281,
2011-04-24, 00:31:04,VALID,1004.38,VALID,0,INVALID,163.746,VALID,0,VALID,23.7407,VALID,48,VALID,0.510938,
2011-04-24, 00:32:04,VALID,1004.39,VALID,0,INVALID,163.784,VALID,0,VALID,23.7601,VALID,48,VALID,0.472266,
2011-04-24, 00:33:04,VALID,1004.39,VALID,0,INVALID,163.746,VALID,0,VALID,23.7619,VALID,43,VALID,0.483594,
2011-04-24, 00:34:04,VALID,1004.39,VALID,0,INVALID,163.754,VALID,0,VALID,23.7619,VALID,7,VALID,0.623438,
2011-04-24, 00:35:04,VALID,1004.39,VALID,0,INVALID,163.754,VALID,0,VALID,23.7601,VALID,2,VALID,0.603125,
2011-04-24, 00:36:04,VALID,1004.39,VALID,0,INVALID,163.762,VALID,0,VALID,23.7601,VALID,2,VALID,0.669922,
2011-04-24, 00:37:04,VALID,1004.39,VALID,0,INVALID,163.769,VALID,0,VALID,23.7796,VALID,2,VALID,0.498437,
2011-04-24, 00:38:04,VALID,1004.38,VALID,0,INVALID,163.769,VALID,0,VALID,23.8221,VALID,2,VALID,0.397656,
2011-04-24, 00:39:04,VALID,1004.39,VALID,0,INVALID,163.769,VALID,0,VALID,23.7991,VALID,2,VALID,0.462109,
2011-04-24, 00:40:04,VALID,1004.34,VALID,0,INVALID,163.754,VALID,0,VALID,23.8009,VALID,2,VALID,0.522656,
2011-04-24, 00:41:04,VALID,1004.32,VALID,0,INVALID,163.754,VALID,0,VALID,23.7796,VALID,2,VALID,0.380859,
2011-04-24, 00:42:04,VALID,1004.29,VALID,0,INVALID,163.762,VALID,0,VALID,23.7991,VALID,2,VALID,0.56875,
2011-04-24, 00:43:04,VALID,1004.26,VALID,0,INVALID,163.762,VALID,0,VALID,23.7991,VALID,2,VALID,0.349609,
2011-04-24, 00:44:04,VALID,1004.27,VALID,0,INVALID,163.739,VALID,0.100563,VALID,23.7973,VALID,2,VALID,0.363672,
2011-04-24, 00:45:04,VALID,1004.26,VALID,0,INVALID,163.754,VALID,0.100563,VALID,23.7973,VALID,2,VALID,0.495703,
2011-04-24, 00:46:04,VALID,1004.24,VALID,0,INVALID,163.754,VALID,0.100563,VALID,23.8167,VALID,2,VALID,0.463672,
2011-04-24, 00:47:04,VALID,1004.22,VALID,0,INVALID,163.746,VALID,0.100563,VALID,23.8167,VALID,2,VALID,0.376953,
2011-04-24, 00:48:04,VALID,1004.19,VALID,0,INVALID,163.739,VALID,0.100563,VALID,23.838,VALID,2,VALID,0.266797,
2011-04-24, 00:49:04,VALID,1004.19,VALID,0,INVALID,163.754,VALID,0.100563,VALID,23.8362,VALID,2,VALID,0.264062,
2011-04-24, 00:50:04,VALID,1004.2,VALID,0,INVALID,163.762,VALID,0.100563,VALID,23.8575,VALID,2,VALID,0.274609,
2011-04-24, 00:51:04,VALID,1004.17,VALID,0,INVALID,163.8,VALID,0.100563,VALID,23.8167,VALID,2,VALID,0.208984,
2011-04-24, 00:52:04,VALID,1004.19,VALID,0,INVALID,163.739,VALID,0.100563,VALID,23.8167,VALID,2,VALID,0.06875,
2011-04-24, 00:53:04,VALID,1004.16,VALID,0,INVALID,163.739,VALID,0,VALID,23.8769,VALID,2,VALID,0,
2011-04-24, 00:54:04,VALID,1004.13,VALID,0,INVALID,163.746,VALID,0.100563,VALID,23.8167,VALID,2,VALID,0,
2011-04-24, 00:55:04,VALID,1004.13,VALID,0,INVALID,163.784,VALID,0.100563,VALID,23.838,VALID,2,VALID,0,
2011-04-24, 00:56:04,VALID,1004.1,VALID,0,INVALID,163.762,VALID,0.100563,VALID,23.838,VALID,2,VALID,0,
2011-04-24, 00:57:04,VALID,1004.07,VALID,0,INVALID,163.769,VALID,0.100563,VALID,23.7778,VALID,2,VALID,0,
2011-04-24, 00:58:04,VALID,1004.08,VALID,0,INVALID,163.769,VALID,0.100563,VALID,23.7973,VALID,2,VALID,0,
2011-04-24, 00:59:04,VALID,1004.06,VALID,0,INVALID,163.746,VALID,0.100563,VALID,23.7991,VALID,2,VALID,0,
2011-04-24, 01:00:04,VALID,1004.03,VALID,0,INVALID,163.762,VALID,0,VALID,23.7778,VALID,2,VALID,0,
2011-04-24, 01:01:04,VALID,1004.03,VALID,0,INVALID,163.777,VALID,0.100563,VALID,23.8185,VALID,2,VALID,0,
2011-04-24, 01:02:04,VALID,1004.02,VALID,0,INVALID,163.739,VALID,0.100563,VALID,23.838,VALID,2,VALID,0,
2011-04-24, 01:03:04,VALID,1003.97,VALID,0,INVALID,163.746,VALID,0.100563,VALID,23.7991,VALID,2,VALID,0,
2011-04-24, 01:04:04,VALID,1003.99,VALID,0,INVALID,163.754,VALID,0,VALID,23.7991,VALID,2,VALID,0,
2011-04-24, 01:05:04,VALID,1003.98,VALID,0,INVALID,163.731,VALID,0.100563,VALID,23.7778,VALID,2,VALID,0,
2011-04-24, 01:06:04,VALID,1003.96,VALID,0,INVALID,163.777,VALID,0.100563,VALID,23.7973,VALID,2,VALID,0,
2011-04-24, 01:07:04,VALID,1003.96,VALID,0,INVALID,163.762,VALID,0.100563,VALID,23.8167,VALID,2,VALID,0,
2011-04-24, 01:08:04,VALID,1003.95,VALID,0,INVALID,163.739,VALID,0.100563,VALID,23.838,VALID,2,VALID,0,
2011-04-24, 01:09:04,VALID,1003.93,VALID,0,INVALID,163.762,VALID,0.100563,VALID,23.8167,VALID,2,VALID,0,
2011-04-24, 01:10:04,VALID,1003.92,VALID,0,INVALID,163.739,VALID,0.100563,VALID,23.838,VALID,2,VALID,0,
2011-04-24, 01:11:04,VALID,1003.94,VALID,0,INVALID,163.739,VALID,0,VALID,23.838,VALID,2,VALID,0,
2011-04-24, 01:12:04,VALID,1003.92,VALID,0,INVALID,163.762,VALID,0.100563,VALID,23.8575,VALID,2,VALID,0,
2011-04-24, 01:13:04,VALID,1003.89,VALID,0,INVALID,163.746,VALID,0.100563,VALID,23.8167,VALID,2,VALID,0,
2011-04-24, 01:14:04,VALID,1003.85,VALID,0,INVALID,163.746,VALID,0.100563,VALID,23.838,VALID,2,VALID,0,
2011-04-24, 01:15:04,VALID,1003.81,VALID,0,INVALID,163.739,VALID,0,VALID,23.8167,VALID,2,VALID,0,
2011-04-24, 01:16:04,VALID,1003.78,VALID,0,INVALID,163.723,VALID,0.100563,VALID,23.8362,VALID,2,VALID,0,
2011-04-24, 01:17:04,VALID,1003.74,VALID,0,INVALID,163.754,VALID,0,VALID,23.8575,VALID,2,VALID,0,
2011-04-24, 01:18:04,VALID,1003.72,VALID,0,INVALID,163.723,VALID,0.100563,VALID,23.8575,VALID,2,VALID,0,
2011-04-24, 01:19:04,VALID,1003.67,VALID,0,INVALID,163.739,VALID,0.100563,VALID,23.8575,VALID,2,VALID,0,
2011-04-24, 01:20:04,VALID,1003.64,VALID,0,INVALID,163.769,VALID,0.100563,VALID,23.838,VALID,2,VALID,0,
2011-04-24, 01:21:04,VALID,1003.63,VALID,0,INVALID,163.784,VALID,0,VALID,23.8167,VALID,2,VALID,0,
2011-04-24, 01:22:04,VALID,1003.61,VALID,0,INVALID,163.739,VALID,0.100563,VALID,23.8185,VALID,2,VALID,0,
2011-04-24, 01:23:04,VALID,1003.58,VALID,0,INVALID,163.784,VALID,0,VALID,23.8185,VALID,2,VALID,0,
2011-04-24, 01:24:04,VALID,1003.58,VALID,0,INVALID,163.731,VALID,0.100563,VALID,23.7778,VALID,2,VALID,0,
2011-04-24, 01:25:04,VALID,1003.58,VALID,0,INVALID,163.746,VALID,0,VALID,23.7796,VALID,2,VALID,0,
2011-04-24, 01:26:04,VALID,1003.56,VALID,0,INVALID,163.784,VALID,0.100563,VALID,23.7601,VALID,2,VALID,0,
2011-04-24, 01:27:04,VALID,1003.55,VALID,0,INVALID,163.754,VALID,0,VALID,23.7389,VALID,2,VALID,0,
2011-04-24, 01:28:04,VALID,1003.55,VALID,0,INVALID,163.739,VALID,0.100563,VALID,23.7212,VALID,2,VALID,0,
2011-04-24, 01:29:04,VALID,1003.53,VALID,0,INVALID,163.769,VALID,0.100563,VALID,23.6823,VALID,2,VALID,0,
2011-04-24, 01:30:04,VALID,1003.53,VALID,0,INVALID,163.762,VALID,0.100563,VALID,23.6823,VALID,2,VALID,0,
2011-04-24, 01:31:04,VALID,1003.55,VALID,0,INVALID,163.762,VALID,0,VALID,23.6628,VALID,2,VALID,0,
2011-04-24, 01:32:04,VALID,1003.51,VALID,0,INVALID,163.762,VALID,0.100563,VALID,23.6628,VALID,2,VALID,0,
2011-04-24, 01:33:04,VALID,1003.5,VALID,0,INVALID,163.754,VALID,0,VALID,23.6434,VALID,2,VALID,0,
2011-04-24, 01:34:04,VALID,1003.47,VALID,0,INVALID,163.746,VALID,0,VALID,23.6416,VALID,2,VALID,0,
2011-04-24, 01:35:04,VALID,1003.46,VALID,0,INVALID,163.746,VALID,0,VALID,23.6434,VALID,2,VALID,0,
2011-04-24, 01:36:04,VALID,1003.44,VALID,0,INVALID,163.784,VALID,0.100563,VALID,23.5814,VALID,2,VALID,0.447656,
2011-04-24, 01:37:04,VALID,1003.45,VALID,0,INVALID,163.777,VALID,0,VALID,23.5832,VALID,2,VALID,0.398047,
2011-04-24, 01:38:04,VALID,1003.44,VALID,0,INVALID,163.777,VALID,0.100563,VALID,23.5832,VALID,2,VALID,0.279297,
2011-04-24, 01:39:04,VALID,1003.41,VALID,0,INVALID,163.762,VALID,0.100563,VALID,23.6044,VALID,2,VALID,0.242188,
2011-04-24, 01:40:04,VALID,1003.38,VALID,0,INVALID,163.762,VALID,0.100563,VALID,23.585,VALID,2,VALID,0.353906,
2011-04-24, 01:41:04,VALID,1003.4,VALID,0,INVALID,163.754,VALID,0,VALID,23.585,VALID,2,VALID,0.266016,
2011-04-24, 01:42:04,VALID,1003.41,VALID,0,INVALID,163.762,VALID,0.100563,VALID,23.5655,VALID,2,VALID,0.264062,
2011-04-24, 01:43:04,VALID,1003.4,VALID,0,INVALID,163.769,VALID,0.100563,VALID,23.546,VALID,2,VALID,0.184766,
2011-04-24, 01:44:04,VALID,1003.36,VALID,0,INVALID,163.777,VALID,0,VALID,23.5266,VALID,2,VALID,0.315234,
2011-04-24, 01:45:04,VALID,1003.36,VALID,0,INVALID,163.754,VALID,0,VALID,23.5053,VALID,2,VALID,0.0367187,
2011-04-24, 01:46:04,VALID,1003.36,VALID,0,INVALID,163.8,VALID,0,VALID,23.5284,VALID,2,VALID,0,
2011-04-24, 01:47:04,VALID,1003.34,VALID,0,INVALID,163.777,VALID,0,VALID,23.4877,VALID,2,VALID,0,
2011-04-24, 01:48:04,VALID,1003.35,VALID,0,INVALID,163.754,VALID,0,VALID,23.5071,VALID,2,VALID,0.0183594,
2011-04-24, 01:49:04,VALID,1003.31,VALID,0,INVALID,163.769,VALID,0,VALID,23.5266,VALID,2,VALID,0.00234375,
2011-04-24, 01:50:04,VALID,1003.29,VALID,0,INVALID,163.777,VALID,0,VALID,23.5478,VALID,2,VALID,0,
2011-04-24, 01:51:04,VALID,1003.28,VALID,0,INVALID,163.784,VALID,0,VALID,23.5266,VALID,2,VALID,0,
2011-04-24, 01:52:04,VALID,1003.29,VALID,0,INVALID,163.769,VALID,0,VALID,23.5266,VALID,2,VALID,0,
2011-04-24, 01:53:04,VALID,1003.25,VALID,0,INVALID,163.769,VALID,0,VALID,23.5284,VALID,2,VALID,0,
2011-04-24, 01:54:04,VALID,1003.25,VALID,0,INVALID,163.777,VALID,0,VALID,23.5071,VALID,2,VALID,0,
2011-04-24, 01:55:04,VALID,1003.24,VALID,0,INVALID,163.777,VALID,0,VALID,23.5266,VALID,2,VALID,0,
2011-04-24, 01:56:04,VALID,1003.23,VALID,0,INVALID,163.762,VALID,0,VALID,23.5266,VALID,2,VALID,0.0148437,
2011-04-24, 01:57:04,VALID,1003.23,VALID,0,INVALID,163.769,VALID,0,VALID,23.546,VALID,2,VALID,0.197266,
2011-04-24, 01:58:04,VALID,1003.24,VALID,0,INVALID,163.762,VALID,0,VALID,23.585,VALID,2,VALID,0.028125,
2011-04-24, 01:59:04,VALID,1003.2,VALID,0,INVALID,163.777,VALID,0,VALID,23.585,VALID,2,VALID,0,
2011-04-24, 02:00:04,VALID,1003.2,VALID,0,INVALID,163.777,VALID,0,VALID,23.6062,VALID,2,VALID,0.025,
2011-04-24, 02:01:04,VALID,1003.21,VALID,0,INVALID,163.777,VALID,0,VALID,23.5868,VALID,4,VALID,0.551953,
2011-04-24, 02:02:04,VALID,1003.2,VALID,0,INVALID,163.784,VALID,0,VALID,23.5478,VALID,7,VALID,0.638672,
2011-04-24, 02:03:04,VALID,1003.2,VALID,0,INVALID,163.754,VALID,0,VALID,23.4682,VALID,6,VALID,0.633594,
2011-04-24, 02:04:04,VALID,1003.2,VALID,0,INVALID,163.784,VALID,0,VALID,23.4505,VALID,3,VALID,0.731641,
2011-04-24, 02:05:04,VALID,1003.18,VALID,0,INVALID,163.762,VALID,0,VALID,23.4098,VALID,357,VALID,0.780078,
2011-04-24, 02:06:04,VALID,1003.17,VALID,0,INVALID,163.769,VALID,0,VALID,23.4505,VALID,356,VALID,0.491016,
2011-04-24, 02:07:04,VALID,1003.17,VALID,0,INVALID,163.769,VALID,0,VALID,23.4293,VALID,356,VALID,0.38125,
2011-04-24, 02:08:04,VALID,1003.16,VALID,0,INVALID,163.762,VALID,0,VALID,23.4487,VALID,356,VALID,0.553516,
2011-04-24, 02:09:04,VALID,1003.15,VALID,0,INVALID,163.815,VALID,0,VALID,23.47,VALID,356,VALID,0.506641,
2011-04-24, 02:10:04,VALID,1003.16,VALID,0,INVALID,163.784,VALID,0,VALID,23.4894,VALID,356,VALID,0.351563,
2011-04-24, 02:11:04,VALID,1003.15,VALID,0,INVALID,163.777,VALID,0,VALID,23.5089,VALID,356,VALID,0.342187,
2011-04-24, 02:12:04,VALID,1003.14,VALID,0,INVALID,163.777,VALID,0,VALID,23.546,VALID,356,VALID,0.523047,
2011-04-24, 02:13:04,VALID,1003.16,VALID,0,INVALID,163.769,VALID,0,VALID,23.5673,VALID,356,VALID,0.416406,
2011-04-24, 02:14:04,VALID,1003.18,VALID,0,INVALID,163.769,VALID,0,VALID,23.5478,VALID,356,VALID,0.550391,
2011-04-24, 02:15:04,VALID,1003.2,VALID,0,INVALID,163.754,VALID,0,VALID,23.546,VALID,356,VALID,0.626562,
2011-04-24, 02:16:04,VALID,1003.18,VALID,0,INVALID,163.792,VALID,0,VALID,23.5248,VALID,356,VALID,0.498437,
2011-04-24, 02:17:04,VALID,1003.17,VALID,0,INVALID,163.754,VALID,0,VALID,23.5478,VALID,356,VALID,0.427344,
2011-04-24, 02:18:04,VALID,1003.14,VALID,0,INVALID,163.746,VALID,0,VALID,23.5266,VALID,356,VALID,0.270703,
2011-04-24, 02:19:04,VALID,1003.13,VALID,0,INVALID,163.784,VALID,0,VALID,23.5266,VALID,356,VALID,0.21875,
2011-04-24, 02:20:04,VALID,1003.09,VALID,0,INVALID,163.769,VALID,0,VALID,23.5673,VALID,356,VALID,0.148828,
2011-04-24, 02:21:04,VALID,1003.07,VALID,0,INVALID,163.8,VALID,0,VALID,23.546,VALID,356,VALID,0.158203,
2011-04-24, 02:22:04,VALID,1003.03,VALID,0,INVALID,163.777,VALID,0,VALID,23.5673,VALID,356,VALID,0.414063,
2011-04-24, 02:23:04,VALID,1003.01,VALID,0,INVALID,163.769,VALID,0,VALID,23.5478,VALID,356,VALID,0.160156,
2011-04-24, 02:24:04,VALID,1003.01,VALID,0,INVALID,163.784,VALID,0,VALID,23.5071,VALID,356,VALID,0,
2011-04-24, 02:25:04,VALID,1003,VALID,0,INVALID,163.762,VALID,0,VALID,23.5284,VALID,356,VALID,0.3375,
2011-04-24, 02:26:04,VALID,1002.98,VALID,0,INVALID,163.769,VALID,0,VALID,23.4877,VALID,356,VALID,0.4375,
2011-04-24, 02:27:04,VALID,1003,VALID,0,INVALID,163.762,VALID,0,VALID,23.4912,VALID,356,VALID,0.476172,
2011-04-24, 02:28:04,VALID,1002.95,VALID,0,INVALID,163.769,VALID,0,VALID,23.4505,VALID,356,VALID,0.444141,
2011-04-24, 02:29:04,VALID,1002.97,VALID,0,INVALID,163.777,VALID,0,VALID,23.4505,VALID,356,VALID,0.680859,
2011-04-24, 02:30:04,VALID,1002.94,VALID,0,INVALID,163.784,VALID,0,VALID,23.4487,VALID,356,VALID,0.570313,
2011-04-24, 02:31:04,VALID,1002.96,VALID,0,INVALID,163.784,VALID,0,VALID,23.4894,VALID,356,VALID,0.558594,
2011-04-24, 02:32:04,VALID,1002.95,VALID,0,INVALID,163.777,VALID,0,VALID,23.47,VALID,355,VALID,0.430078,
2011-04-24, 02:33:04,VALID,1002.94,VALID,0,INVALID,163.769,VALID,0,VALID,23.47,VALID,356,VALID,0.702734,
2011-04-24, 02:34:04,VALID,1002.93,VALID,0,INVALID,163.762,VALID,0,VALID,23.4894,VALID,350,VALID,0.660547,
2011-04-24, 02:35:04,VALID,1002.93,VALID,0,INVALID,163.792,VALID,0,VALID,23.5089,VALID,345,VALID,0.480078,
2011-04-24, 02:36:05,VALID,1002.92,VALID,0,INVALID,163.777,VALID,0,VALID,23.4682,VALID,345,VALID,0.350781,
2011-04-24, 02:37:05,VALID,1002.93,VALID,0,INVALID,163.762,VALID,0,VALID,23.4877,VALID,354,VALID,0.422656,
2011-04-24, 02:38:05,VALID,1002.92,VALID,0,INVALID,163.769,VALID,0,VALID,23.4877,VALID,357,VALID,0.429297,
2011-04-24, 02:39:05,VALID,1002.91,VALID,0,INVALID,163.777,VALID,0,VALID,23.4682,VALID,357,VALID,0.15625,
2011-04-24, 02:40:05,VALID,1002.91,VALID,0,INVALID,163.762,VALID,0,VALID,23.4894,VALID,357,VALID,0.00351562,
2011-04-24, 02:41:05,VALID,1002.91,VALID,0,INVALID,163.762,VALID,0,VALID,23.4487,VALID,357,VALID,0,
2011-04-24, 02:42:05,VALID,1002.91,VALID,0,INVALID,163.792,VALID,0,VALID,23.47,VALID,357,VALID,0,
2011-04-24, 02:43:05,VALID,1002.92,VALID,0,INVALID,163.777,VALID,0,VALID,23.4505,VALID,357,VALID,0,
2011-04-24, 02:44:05,VALID,1002.91,VALID,0,INVALID,163.762,VALID,0,VALID,23.47,VALID,357,VALID,0.138281,
2011-04-24, 02:45:05,VALID,1002.93,VALID,0,INVALID,163.784,VALID,0,VALID,23.4293,VALID,357,VALID,0.235547,
2011-04-24, 02:46:05,VALID,1002.89,VALID,0,INVALID,163.784,VALID,0,VALID,23.47,VALID,357,VALID,0.440625,
2011-04-24, 02:47:05,VALID,1002.92,VALID,0,INVALID,163.769,VALID,0,VALID,23.4505,VALID,357,VALID,0.236719,
2011-04-24, 02:48:05,VALID,1002.9,VALID,0,INVALID,163.807,VALID,0,VALID,23.4293,VALID,357,VALID,0.274219,
2011-04-24, 02:49:05,VALID,1002.93,VALID,0,INVALID,163.807,VALID,0,VALID,23.4505,VALID,357,VALID,0.345313,
2011-04-24, 02:50:05,VALID,1002.97,VALID,0,INVALID,163.792,VALID,0,VALID,23.4293,VALID,357,VALID,0.279297,
2011-04-24, 02:51:05,VALID,1002.98,VALID,0,INVALID,163.8,VALID,0,VALID,23.4311,VALID,357,VALID,0.357812,
2011-04-24, 02:52:05,VALID,1003,VALID,0,INVALID,163.762,VALID,0,VALID,23.4311,VALID,357,VALID,0.263672,
2011-04-24, 02:53:05,VALID,1003,VALID,0,INVALID,163.777,VALID,0,VALID,23.4116,VALID,357,VALID,0.303125,
2011-04-24, 02:54:05,VALID,1002.97,VALID,0,INVALID,163.777,VALID,0,VALID,23.3709,VALID,357,VALID,0.147266,
2011-04-24, 02:55:05,VALID,1002.99,VALID,0,INVALID,163.784,VALID,0,VALID,23.4116,VALID,357,VALID,0,
2011-04-24, 02:56:05,VALID,1002.94,VALID,0,INVALID,163.807,VALID,0,VALID,23.4116,VALID,357,VALID,0,
2011-04-24, 02:57:05,VALID,1002.96,VALID,0,INVALID,163.784,VALID,0,VALID,23.3921,VALID,357,VALID,0,
2011-04-24, 02:58:05,VALID,1002.96,VALID,0,INVALID,163.769,VALID,0,VALID,23.3709,VALID,357,VALID,0,
2011-04-24, 02:59:05,VALID,1002.93,VALID,0,INVALID,163.784,VALID,0,VALID,23.3514,VALID,357,VALID,0,
2011-04-24, 03:00:05,VALID,1002.94,VALID,0,INVALID,163.784,VALID,0,VALID,23.332,VALID,357,VALID,0.455078,
2011-04-24, 03:01:05,VALID,1002.93,VALID,0,INVALID,163.8,VALID,0,VALID,23.332,VALID,357,VALID,0.494922,
2011-04-24, 03:02:05,VALID,1002.97,VALID,0,INVALID,163.784,VALID,0,VALID,23.3337,VALID,357,VALID,0.467578,
2011-04-24, 03:03:05,VALID,1002.95,VALID,0,INVALID,163.777,VALID,0,VALID,23.332,VALID,357,VALID,0.474609,
2011-04-24, 03:04:05,VALID,1002.97,VALID,0,INVALID,163.784,VALID,0,VALID,23.3532,VALID,357,VALID,0.467578,
2011-04-24, 03:05:05,VALID,1002.98,VALID,0,INVALID,163.8,VALID,0,VALID,23.332,VALID,357,VALID,0.458594,
2011-04-24, 03:06:05,VALID,1003,VALID,0,INVALID,163.784,VALID,0,VALID,23.3532,VALID,357,VALID,0.392188,
2011-04-24, 03:07:05,VALID,1003,VALID,0,INVALID,163.8,VALID,0,VALID,23.332,VALID,357,VALID,0.462891,
2011-04-24, 03:08:05,VALID,1003.02,VALID,0,INVALID,163.784,VALID,0,VALID,23.3532,VALID,357,VALID,0.469922,
2011-04-24, 03:09:05,VALID,1003.01,VALID,0,INVALID,163.769,VALID,0,VALID,23.3514,VALID,357,VALID,0.355469,
2011-04-24, 03:10:05,VALID,1003.03,VALID,0,INVALID,163.8,VALID,0,VALID,23.3921,VALID,357,VALID,0.502734,
2011-04-24, 03:11:05,VALID,1003.01,VALID,0,INVALID,163.777,VALID,0,VALID,23.3514,VALID,357,VALID,0.515234,
2011-04-24, 03:12:05,VALID,1003.03,VALID,0,INVALID,163.792,VALID,0,VALID,23.3921,VALID,357,VALID,0.506641,
2011-04-24, 03:13:05,VALID,1003.03,VALID,0,INVALID,163.777,VALID,0,VALID,23.3904,VALID,357,VALID,0.433984,
2011-04-24, 03:14:05,VALID,1003.08,VALID,0,INVALID,163.792,VALID,0,VALID,23.3904,VALID,357,VALID,0.439844,
2011-04-24, 03:15:05,VALID,1003.08,VALID,0,INVALID,163.777,VALID,0,VALID,23.3727,VALID,357,VALID,0.532422,
2011-04-24, 03:16:05,VALID,1003.1,VALID,0,INVALID,163.784,VALID,0,VALID,23.3514,VALID,357,VALID,0.310937,
2011-04-24, 03:17:05,VALID,1003.14,VALID,0,INVALID,163.769,VALID,0,VALID,23.3514,VALID,357,VALID,0.332031,
2011-04-24, 03:18:05,VALID,1003.14,VALID,0,INVALID,163.784,VALID,0,VALID,23.3727,VALID,357,VALID,0.680078,
2011-04-24, 03:19:05,VALID,1003.15,VALID,0,INVALID,163.784,VALID,0,VALID,23.3532,VALID,356,VALID,0.510938,
2011-04-24, 03:20:05,VALID,1003.15,VALID,0,INVALID,163.792,VALID,0,VALID,23.332,VALID,356,VALID,0.650391,
2011-04-24, 03:21:05,VALID,1003.15,VALID,0,INVALID,163.754,VALID,0,VALID,23.3125,VALID,356,VALID,0.567578,
2011-04-24, 03:22:05,VALID,1003.15,VALID,0,INVALID,163.792,VALID,0,VALID,23.3709,VALID,353,VALID,0.614844,
2011-04-24, 03:23:05,VALID,1003.15,VALID,0,INVALID,163.8,VALID,0,VALID,23.3514,VALID,353,VALID,0.295312,
2011-04-24, 03:24:05,VALID,1003.18,VALID,0,INVALID,163.762,VALID,0,VALID,23.3514,VALID,350,VALID,0.439844,
2011-04-24, 03:25:05,VALID,1003.19,VALID,0,INVALID,163.777,VALID,0,VALID,23.3514,VALID,350,VALID,0.297656,
2011-04-24, 03:26:05,VALID,1003.24,VALID,0,INVALID,163.815,VALID,0,VALID,23.3514,VALID,350,VALID,0.239063,
2011-04-24, 03:27:05,VALID,1003.24,VALID,0,INVALID,163.784,VALID,0,VALID,23.3727,VALID,350,VALID,0.299609,
2011-04-24, 03:28:05,VALID,1003.26,VALID,0,INVALID,163.792,VALID,0,VALID,23.3904,VALID,350,VALID,0.49375,
2011-04-24, 03:29:05,VALID,1003.28,VALID,0,INVALID,163.792,VALID,0,VALID,23.4311,VALID,350,VALID,0.286328,
2011-04-24, 03:30:05,VALID,1003.29,VALID,0,INVALID,163.784,VALID,0,VALID,23.3921,VALID,350,VALID,0.232031,
2011-04-24, 03:31:05,VALID,1003.31,VALID,0,INVALID,163.754,VALID,0,VALID,23.3514,VALID,350,VALID,0.115625,
2011-04-24, 03:32:05,VALID,1003.33,VALID,0,INVALID,163.762,VALID,0,VALID,23.3514,VALID,350,VALID,0.157031,
2011-04-24, 03:33:05,VALID,1003.3,VALID,0,INVALID,163.784,VALID,0,VALID,23.332,VALID,350,VALID,0,
2011-04-24, 03:34:05,VALID,1003.34,VALID,0,INVALID,163.792,VALID,0,VALID,23.332,VALID,350,VALID,0,
2011-04-24, 03:35:05,VALID,1003.33,VALID,0,INVALID,163.777,VALID,0,VALID,23.332,VALID,350,VALID,0,
2011-04-24, 03:36:05,VALID,1003.31,VALID,0,INVALID,163.792,VALID,0,VALID,23.332,VALID,350,VALID,0.210938,
2011-04-24, 03:37:05,VALID,1003.33,VALID,0,INVALID,163.769,VALID,0,VALID,23.3337,VALID,350,VALID,0.0222656,
2011-04-24, 03:38:05,VALID,1003.3,VALID,0,INVALID,163.784,VALID,0,VALID,23.3125,VALID,350,VALID,0,
2011-04-24, 03:39:05,VALID,1003.28,VALID,0,INVALID,163.792,VALID,0,VALID,23.2913,VALID,350,VALID,0.209766,
2011-04-24, 03:40:05,VALID,1003.26,VALID,0,INVALID,163.784,VALID,0,VALID,23.2931,VALID,350,VALID,0,
2011-04-24, 03:41:05,VALID,1003.3,VALID,0,INVALID,163.8,VALID,0,VALID,23.2736,VALID,350,VALID,0.217578,
2011-04-24, 03:42:05,VALID,1003.28,VALID,0,INVALID,163.769,VALID,0,VALID,23.2948,VALID,350,VALID,0.216797,
2011-04-24, 03:43:05,VALID,1003.28,VALID,0,INVALID,163.777,VALID,0,VALID,23.2754,VALID,350,VALID,0.292578,
2011-04-24, 03:44:05,VALID,1003.27,VALID,0,INVALID,163.807,VALID,0,VALID,23.2559,VALID,350,VALID,0.254297,